Location: Unspecified
(51.0950°N, 12.9690°E)
Time: 21:37:14
(UTC+00:00)

SL-8 R/B - Pass Details

Date: 28 October 2021
Orbit: 656 x 667 km, 48.4° (Epoch: 01 December)

Event Time Altitude Azimuth Distance (km) Brightness Sun altitude
Rises 18:08:01 0° 277° (W) 2,987 8.6 -22.3°
Reaches altitude 10° 18:10:25 10° 271° (W) 2,075 7.4 -22.7°
Maximum altitude 18:15:00 48° 198° (SSW) 868 4.3 -23.4°
Enters shadow 18:15:42 44° 171° (S) 913 4.2 -23.5°
